Regional Weather Roundup
Issued by NWS

Home | Current Version | Previous Version | Text Only | Print | Product List | Glossary Off
Versions: 1 2 3 4 5 6 7 8 9 10 11 12 13 14 15 16 17 18 19 20 21 22 23 24 25 26 27 28 29 30 31 32 33 34 35 36 37 38 39 40 41 42 43 44 45 46 47 48 49 50

000
ASUS43 KOAX 301010
RWRNE

WEATHER ROUNDUP FOR NEBRASKA
NATIONAL WEATHER SERVICE OMAHA NE
500 AM CDT THU OCT 30 2014

NOTES: SATELLITE DATA IS BEING USED TO AUGMENT CLOUD COVER ABOVE
       12000 FEET.
       "FAIR" INDICATES FEW OR NO CLOUDS BELOW 12,000 FEET WITH NO
       SIGNIFICANT WEATHER AND/OR OBSTRUCTIONS TO VISIBILITY.

  * THESE STATIONS DO NOT REPORT WEATHER SUCH AS RAIN...SNOW OR FOG.

NEZ001>004-019>022-054>056-301100-
NEBRASKA PANHANDLE

CITY           SKY/WX    TMP DP  RH WIND       PRES   REMARKS
SCOTTSBLUFF    CLEAR     35  28  75 NW6       30.26R WCI  30
ALLIANCE       CLEAR     31  27  85 W12       30.22R WCI  22
CHADRON        CLEAR     37  28  70 SW8       30.22R WCI  31
KIMBALL        CLEAR     39  27  60 NW7       30.24R WCI  34
SIDNEY         CLEAR     37  26  64 W13       30.23S WCI  29
$$

NEZ057>060-069>072-079>082-301100-
SOUTHWEST NEBRASKA

CITY           SKY/WX    TMP DP  RH WIND       PRES   REMARKS
NORTH PLATTE   CLEAR     32  25  75 W8        30.15R WCI  25
IMPERIAL       CLEAR     40  25  55 W14       30.18R WCI  32
LEXINGTON      CLEAR     40  29  65 W9        30.11R WCI  34
MCCOOK         CLEAR     45  25  45 W10       30.14R
OGALLALA       CLEAR     35  28  74 SW10      30.18R WCI  28
$$

NEZ005>010-023>029-035>040-094-301100-
NORTH CENTRAL NEBRASKA

CITY           SKY/WX    TMP DP  RH WIND       PRES   REMARKS
VALENTINE      CLEAR     37  30  75 W10       30.11S WCI  30
AINSWORTH      CLEAR     41  32  70 W7        30.10R
BROKEN BOW     CLEAR     46  29  51 NW13      30.10R
O`NEILL        CLEAR     46  34  63 W10       30.05S
ORD            CLEAR     35  30  82 NW9       30.07R WCI  28
THEDFORD       CLEAR     38  30  73 W8        30.13S WCI  32
$$

NEZ041-046>049-061>064-073>077-083>087-301100-
SOUTH CENTRAL NEBRASKA

CITY           SKY/WX    TMP DP  RH WIND       PRES   REMARKS
GRAND ISLAND   CLEAR     38  33  82 W5        30.04R WCI  34
AURORA         CLEAR     40  33  77 NW10      30.02R WCI  33
HASTINGS       CLEAR     41  34  76 NW7       30.03R
HEBRON         MOCLDY    43  36  75 N5        30.00R
HOLDREGE       CLEAR     46  30  54 NW12      30.08R
KEARNEY *      CLEAR     39  30  70 W12       30.08R WCI  32
YORK           CLEAR     39  36  87 NW8       30.01S WCI  34
$$

NEZ011>018-030>034-042>045-301100-
NORTHEAST NEBRASKA

CITY           SKY/WX    TMP DP  RH WIND       PRES   REMARKS
NORFOLK        CLEAR     43  34  70 W12       30.00S
ALBION         CLEAR     42  32  68 NW12      30.03S
BLAIR          PTCLDY    44  33  64 S5        29.97S
COLUMBUS *       N/A    N/A N/A N/A MISG        N/A
FREMONT        PTCLDY    40  34  79 W3        29.99F
TEKAMAH        CLEAR     37  31  78 W3        30.00R
WAYNE          CLEAR     39  33  78 S3        30.00S
$$

NEZ050>053-065>068-078-088>093-301100-
SOUTHEAST NEBRASKA

CITY           SKY/WX    TMP DP  RH WIND       PRES   REMARKS
LINCOLN        PTCLDY    43  36  76 NW8       30.01R
OMAHA EPPLEY   PTCLDY    45  33  63 S6        29.99F
BEATRICE       MOCLDY    44  38  80 SE3       29.96F
FALLS CITY     MOCLDY    44  37  76 CALM      29.99R
NEBRASKA CITY  MOCLDY    44  36  73 S6        29.98S
PLATTSMOUTH    MOCLDY    43  33  68 SE5       29.97F
$$

NEZ044-045-051>053-067-301100-
OMAHA AREA

CITY           SKY/WX    TMP DP  RH WIND       PRES   REMARKS
OMAHA EPPLEY   PTCLDY    45  33  63 S6        29.99F
BLAIR          PTCLDY    44  33  64 S5        29.97S
FREMONT        PTCLDY    40  34  79 W3        29.99F
MILLARD        PTCLDY    41  34  75 CALM      29.98S
OFFUTT AFB     PTCLDY    45  34  65 E2        29.96F
PLATTSMOUTH    MOCLDY    43  33  68 SE5       29.97F
WAHOO          FAIR      38  33  82 CALM      29.98F
$$



USA.gov is the U.S. government's official web portal to all federal, state and local government web resources and services.